Time,TemperatureF,DewpointF,PressureIn,WindDirection,WindDirectionDegrees,WindSpeedMPH,WindSpeedGustMPH,Humidity,HourlyPrecipIn,Conditions,Clouds,dailyrainin,SoftwareType,DateUTC
2013-05-19 00:01:00,62.6,45.7,30.00,ESE,111,0.0,0.0,54,0.00,,,0.00,Wunderground v.1.15,2013-05-19 04:01:00,
2013-05-19 00:02:00,62.5,45.6,30.01,East,101,0.0,0.0,54,0.00,,,0.00,Wunderground v.1.15,2013-05-19 04:02:00,
2013-05-19 00:05:00,62.5,45.6,30.00,East,101,0.0,0.0,54,0.00,,,0.00,Wunderground v.1.15,2013-05-19 04:05:00,
2013-05-19 00:06:00,62.4,45.5,30.00,East,101,0.0,0.0,54,0.00,,,0.00,Wunderground v.1.15,2013-05-19 04:06:00,
2013-05-19 00:11:00,62.4,46.0,30.00,ESE,109,0.0,0.0,55,0.00,,,0.00,Wunderground v.1.15,2013-05-19 04:11:00,
2013-05-19 00:15:00,62.3,45.9,30.00,East,94,0.0,0.0,55,0.00,,,0.00,Wunderground v.1.15,2013-05-19 04:15:00,
2013-05-19 00:20:00,62.2,45.8,30.01,East,94,0.0,0.0,55,0.00,,,0.00,Wunderground v.1.15,2013-05-19 04:20:00,
2013-05-19 00:26:00,62.0,45.6,30.01,East,94,0.0,0.0,55,0.00,,,0.00,Wunderground v.1.15,2013-05-19 04:26:00,
2013-05-19 00:31:00,61.7,45.8,30.01,East,95,0.0,0.0,56,0.00,,,0.00,Wunderground v.1.15,2013-05-19 04:31:00,
2013-05-19 00:37:00,61.5,46.1,30.01,East,90,0.0,1.0,57,0.00,,,0.00,Wunderground v.1.15,2013-05-19 04:37:00,
2013-05-19 00:42:00,61.4,46.0,30.01,ESE,103,0.0,0.0,57,0.00,,,0.00,Wunderground v.1.15,2013-05-19 04:42:00,
2013-05-19 00:48:00,61.3,45.9,30.01,ESE,117,0.0,2.0,57,0.00,,,0.00,Wunderground v.1.15,2013-05-19 04:48:00,
2013-05-19 00:54:00,61.2,46.3,30.01,ESE,117,0.0,0.0,58,0.00,,,0.00,Wunderground v.1.15,2013-05-19 04:54:00,
2013-05-19 00:59:00,61.1,46.2,30.00,ESE,117,0.0,0.0,58,0.00,,,0.00,Wunderground v.1.15,2013-05-19 04:59:00,
2013-05-19 01:05:00,60.9,46.5,30.00,ESE,117,0.0,0.0,59,0.00,,,0.00,Wunderground v.1.15,2013-05-19 05:05:00,
2013-05-19 01:10:00,60.7,46.3,30.00,ESE,117,0.0,0.0,59,0.00,,,0.00,Wunderground v.1.15,2013-05-19 05:10:00,
2013-05-19 01:16:00,60.5,46.1,30.00,ESE,117,0.0,0.0,59,0.00,,,0.00,Wunderground v.1.15,2013-05-19 05:16:00,
2013-05-19 01:22:00,60.3,46.4,30.00,ESE,117,0.0,0.0,60,0.00,,,0.00,Wunderground v.1.15,2013-05-19 05:22:00,
2013-05-19 01:27:00,60.1,46.6,29.99,ESE,117,0.0,0.0,61,0.00,,,0.00,Wunderground v.1.15,2013-05-19 05:27:00,
2013-05-19 01:33:00,59.9,46.4,29.99,SW,218,0.0,0.0,61,0.00,,,0.00,Wunderground v.1.15,2013-05-19 05:33:00,
2013-05-19 01:38:00,59.8,46.3,29.99,East,96,0.0,0.0,61,0.00,,,0.00,Wunderground v.1.15,2013-05-19 05:38:00,
2013-05-19 01:44:00,59.8,46.7,29.99,East,96,0.0,0.0,62,0.00,,,0.00,Wunderground v.1.15,2013-05-19 05:44:00,
2013-05-19 01:49:00,59.8,46.7,29.99,ESE,111,0.0,0.0,62,0.00,,,0.00,Wunderground v.1.15,2013-05-19 05:49:00,
2013-05-19 01:55:00,59.8,46.7,29.99,East,93,0.0,0.0,62,0.00,,,0.00,Wunderground v.1.15,2013-05-19 05:55:00,
2013-05-19 02:00:00,59.8,46.7,29.98,ESE,115,0.0,0.0,62,0.00,,,0.00,Wunderground v.1.15,2013-05-19 06:00:00,
2013-05-19 02:05:00,59.8,46.7,29.98,East,90,3.0,4.0,62,0.00,,,0.00,Wunderground v.1.15,2013-05-19 06:05:00,
2013-05-19 02:10:00,59.8,46.7,29.98,NE,52,0.0,1.0,62,0.00,,,0.00,Wunderground v.1.15,2013-05-19 06:10:00,
2013-05-19 02:15:00,59.8,46.7,29.98,East,96,0.0,3.0,62,0.00,,,0.00,Wunderground v.1.15,2013-05-19 06:15:00,
2013-05-19 02:20:00,59.8,46.7,29.97,East,94,0.0,2.0,62,0.00,,,0.00,Wunderground v.1.15,2013-05-19 06:20:00,
2013-05-19 02:25:00,59.8,47.2,29.97,ESE,113,0.0,5.0,63,0.00,,,0.00,Wunderground v.1.15,2013-05-19 06:25:00,
2013-05-19 02:30:00,59.8,47.2,29.97,ENE,69,0.0,1.0,63,0.00,,,0.00,Wunderground v.1.15,2013-05-19 06:30:00,
2013-05-19 02:35:00,59.7,47.1,29.97,ENE,69,0.0,1.0,63,0.00,,,0.00,Wunderground v.1.15,2013-05-19 06:35:00,
2013-05-19 02:40:00,59.4,47.2,29.97,ENE,69,0.0,0.0,64,0.00,,,0.00,Wunderground v.1.15,2013-05-19 06:40:00,
2013-05-19 02:45:00,59.3,47.1,29.97,ENE,78,0.0,0.0,64,0.00,,,0.00,Wunderground v.1.15,2013-05-19 06:45:00,
2013-05-19 02:50:00,59.2,47.4,29.96,ENE,78,0.0,0.0,65,0.00,,,0.00,Wunderground v.1.15,2013-05-19 06:50:00,
2013-05-19 02:55:00,59.1,46.9,29.96,ENE,78,0.0,0.0,64,0.00,,,0.00,Wunderground v.1.15,2013-05-19 06:55:00,
2013-05-19 03:01:00,59.0,47.2,29.96,ENE,78,0.0,0.0,65,0.00,,,0.00,Wunderground v.1.15,2013-05-19 07:01:00,
2013-05-19 03:06:00,58.9,47.2,29.96,ENE,78,0.0,0.0,65,0.00,,,0.00,Wunderground v.1.15,2013-05-19 07:06:00,
2013-05-19 03:11:00,58.8,47.5,29.96,ENE,78,0.0,0.0,66,0.00,,,0.00,Wunderground v.1.15,2013-05-19 07:11:00,
2013-05-19 03:16:00,58.7,47.4,29.96,ENE,78,0.0,0.0,66,0.00,,,0.00,Wunderground v.1.15,2013-05-19 07:16:00,
2013-05-19 03:21:00,58.6,47.7,29.96,ENE,78,0.0,0.0,67,0.00,,,0.00,Wunderground v.1.15,2013-05-19 07:21:00,
2013-05-19 03:26:00,58.5,47.6,29.96,East,88,0.0,1.0,67,0.00,,,0.00,Wunderground v.1.15,2013-05-19 07:26:00,
2013-05-19 03:31:00,58.5,47.6,29.96,East,88,0.0,0.0,67,0.00,,,0.00,Wunderground v.1.15,2013-05-19 07:31:00,
2013-05-19 03:36:00,58.4,47.5,29.95,East,88,0.0,0.0,67,0.00,,,0.00,Wunderground v.1.15,2013-05-19 07:36:00,
2013-05-19 03:41:00,58.2,47.7,29.95,ENE,71,2.0,3.0,68,0.00,,,0.00,Wunderground v.1.15,2013-05-19 07:41:00,
2013-05-19 03:46:00,58.3,47.8,29.95,ENE,77,0.0,3.0,68,0.00,,,0.00,Wunderground v.1.15,2013-05-19 07:46:00,
2013-05-19 03:51:00,58.4,47.5,29.96,ESE,107,0.0,3.0,67,0.00,,,0.00,Wunderground v.1.15,2013-05-19 07:51:00,
2013-05-19 03:57:00,58.6,47.7,29.96,ENE,65,0.0,3.0,67,0.00,,,0.00,Wunderground v.1.15,2013-05-19 07:57:00,
2013-05-19 04:02:00,58.7,47.8,29.96,South,184,0.0,1.0,67,0.00,,,0.00,Wunderground v.1.15,2013-05-19 08:02:00,
2013-05-19 04:07:00,58.7,47.8,29.96,ESE,115,0.0,1.0,67,0.00,,,0.00,Wunderground v.1.15,2013-05-19 08:07:00,
2013-05-19 04:12:00,58.6,47.7,29.96,East,100,0.0,0.0,67,0.00,,,0.00,Wunderground v.1.15,2013-05-19 08:12:00,
2013-05-19 04:17:00,58.5,48.0,29.96,East,100,0.0,0.0,68,0.00,,,0.00,Wunderground v.1.15,2013-05-19 08:17:00,
2013-05-19 04:22:00,58.4,47.9,29.95,ESE,108,0.0,0.0,68,0.00,,,0.00,Wunderground v.1.15,2013-05-19 08:22:00,
2013-05-19 04:27:00,58.2,47.7,29.96,ESE,108,0.0,0.0,68,0.00,,,0.00,Wunderground v.1.15,2013-05-19 08:27:00,
2013-05-19 04:32:00,58.1,48.0,29.96,ESE,108,0.0,0.0,69,0.00,,,0.00,Wunderground v.1.15,2013-05-19 08:32:00,
2013-05-19 04:37:00,57.9,47.8,29.96,ESE,108,0.0,0.0,69,0.00,,,0.00,Wunderground v.1.15,2013-05-19 08:37:00,
2013-05-19 04:42:00,57.8,48.1,29.97,ESE,108,0.0,0.0,70,0.00,,,0.00,Wunderground v.1.15,2013-05-19 08:42:00,
2013-05-19 04:47:00,57.5,47.8,29.97,ESE,108,0.0,0.0,70,0.00,,,0.00,Wunderground v.1.15,2013-05-19 08:47:00,
2013-05-19 04:52:00,57.4,48.1,29.97,ESE,108,0.0,0.0,71,0.00,,,0.00,Wunderground v.1.15,2013-05-19 08:52:00,
2013-05-19 04:57:00,57.3,48.0,29.97,ESE,113,0.0,0.0,71,0.00,,,0.00,Wunderground v.1.15,2013-05-19 08:57:00,
2013-05-19 05:02:00,57.3,48.0,29.97,ESE,114,0.0,0.0,71,0.00,,,0.00,Wunderground v.1.15,2013-05-19 09:02:00,
2013-05-19 05:07:00,57.3,48.0,29.97,SE,127,0.0,1.0,71,0.00,,,0.00,Wunderground v.1.15,2013-05-19 09:07:00,
2013-05-19 05:12:00,57.3,48.0,29.96,SE,128,0.0,0.0,71,0.00,,,0.00,Wunderground v.1.15,2013-05-19 09:12:00,
2013-05-19 05:17:00,57.3,48.0,29.96,East,93,0.0,2.0,71,0.00,,,0.00,Wunderground v.1.15,2013-05-19 09:17:00,
2013-05-19 05:22:00,57.3,48.0,29.97,East,93,0.0,0.0,71,0.00,,,0.00,Wunderground v.1.15,2013-05-19 09:22:00,
2013-05-19 05:27:00,57.2,48.3,29.97,East,100,0.0,0.0,72,0.00,,,0.00,Wunderground v.1.15,2013-05-19 09:27:00,
2013-05-19 05:32:00,57.0,47.7,29.97,East,99,0.0,0.0,71,0.00,,,0.00,Wunderground v.1.15,2013-05-19 09:32:00,
2013-05-19 05:37:00,56.9,48.0,29.97,East,99,0.0,0.0,72,0.00,,,0.00,Wunderground v.1.15,2013-05-19 09:37:00,
2013-05-19 05:42:00,56.6,48.0,29.97,East,98,0.0,0.0,73,0.00,,,0.00,Wunderground v.1.15,2013-05-19 09:42:00,
2013-05-19 05:47:00,56.4,47.9,29.97,East,100,0.0,0.0,73,0.00,,,0.00,Wunderground v.1.15,2013-05-19 09:47:00,
2013-05-19 05:52:00,56.2,48.0,29.97,East,99,0.0,0.0,74,0.00,,,0.00,Wunderground v.1.15,2013-05-19 09:52:00,
2013-05-19 05:57:00,56.1,47.9,29.97,East,99,0.0,1.0,74,0.00,,,0.00,Wunderground v.1.15,2013-05-19 09:57:00,
2013-05-19 06:02:00,56.0,47.8,29.97,East,99,0.0,0.0,74,0.00,,,0.00,Wunderground v.1.15,2013-05-19 10:02:00,
2013-05-19 06:07:00,55.9,48.1,29.97,East,99,0.0,0.0,75,0.00,,,0.00,Wunderground v.1.15,2013-05-19 10:07:00,
2013-05-19 06:12:00,55.8,48.0,29.98,East,99,0.0,0.0,75,0.00,,,0.00,Wunderground v.1.15,2013-05-19 10:12:00,
2013-05-19 06:17:00,55.7,47.9,29.98,East,99,0.0,0.0,75,0.00,,,0.00,Wunderground v.1.15,2013-05-19 10:17:00,
2013-05-19 06:22:00,55.6,47.8,29.97,ESE,109,0.0,0.0,75,0.00,,,0.00,Wunderground v.1.15,2013-05-19 10:22:00,
2013-05-19 06:27:00,55.6,47.8,29.97,SSW,202,0.0,0.0,75,0.00,,,0.00,Wunderground v.1.15,2013-05-19 10:27:00,
2013-05-19 06:32:00,55.7,47.9,29.98,SSW,202,0.0,2.0,75,0.00,,,0.00,Wunderground v.1.15,2013-05-19 10:32:00,
2013-05-19 06:37:00,55.9,47.7,29.97,ESE,116,0.0,5.0,74,0.00,,,0.00,Wunderground v.1.15,2013-05-19 10:37:00,
2013-05-19 06:42:00,56.1,47.9,29.98,ESE,123,0.0,1.0,74,0.00,,,0.00,Wunderground v.1.15,2013-05-19 10:42:00,
2013-05-19 06:47:00,56.2,48.0,29.98,SE,140,0.0,1.0,74,0.00,,,0.00,Wunderground v.1.15,2013-05-19 10:47:00,
2013-05-19 06:52:00,56.4,48.2,29.98,ESE,115,0.0,0.0,74,0.00,,,0.00,Wunderground v.1.15,2013-05-19 10:52:00,
2013-05-19 06:57:00,56.5,48.3,29.98,ESE,115,0.0,0.0,74,0.00,,,0.00,Wunderground v.1.15,2013-05-19 10:57:00,
2013-05-19 07:02:00,56.8,48.6,29.98,South,186,0.0,2.0,74,0.00,,,0.00,Wunderground v.1.15,2013-05-19 11:02:00,
2013-05-19 07:07:00,57.1,48.9,29.98,SSE,159,0.0,2.0,74,0.00,,,0.00,Wunderground v.1.15,2013-05-19 11:07:00,
2013-05-19 07:12:00,57.5,48.9,29.98,SSE,158,0.0,0.0,73,0.00,,,0.00,Wunderground v.1.15,2013-05-19 11:12:00,
2013-05-19 07:17:00,58.0,49.0,29.98,SE,138,1.0,2.0,72,0.00,,,0.00,Wunderground v.1.15,2013-05-19 11:17:00,
2013-05-19 07:22:00,58.4,49.4,29.98,East,99,0.0,0.0,72,0.00,,,0.00,Wunderground v.1.15,2013-05-19 11:22:00,
2013-05-19 07:27:00,58.8,49.4,29.98,East,99,0.0,1.0,71,0.00,,,0.00,Wunderground v.1.15,2013-05-19 11:27:00,
2013-05-19 07:32:00,59.3,49.9,29.98,East,99,0.0,1.0,71,0.00,,,0.00,Wunderground v.1.15,2013-05-19 11:32:00,
2013-05-19 07:37:00,59.8,50.0,29.98,SE,128,1.0,2.0,70,0.00,,,0.00,Wunderground v.1.15,2013-05-19 11:37:00,
2013-05-19 07:42:00,60.2,50.0,29.98,SE,127,0.0,2.0,69,0.00,,,0.00,Wunderground v.1.15,2013-05-19 11:42:00,
2013-05-19 07:47:00,60.5,49.9,29.98,East,98,0.0,2.0,68,0.00,,,0.00,Wunderground v.1.15,2013-05-19 11:47:00,
2013-05-19 07:52:00,60.8,50.2,29.98,ESE,107,0.0,2.0,68,0.00,,,0.00,Wunderground v.1.15,2013-05-19 11:52:00,
2013-05-19 07:57:00,61.2,50.6,29.97,ESE,107,0.0,2.0,68,0.00,,,0.00,Wunderground v.1.15,2013-05-19 11:57:00,
2013-05-19 08:02:00,61.5,50.4,29.97,ESE,117,0.0,2.0,67,0.00,,,0.00,Wunderground v.1.15,2013-05-19 12:02:00,
2013-05-19 08:07:00,61.7,51.0,29.97,East,90,0.0,6.0,68,0.00,,,0.00,Wunderground v.1.15,2013-05-19 12:07:00,
2013-05-19 08:12:00,62.1,51.4,29.97,ESE,105,0.0,3.0,68,0.00,,,0.00,Wunderground v.1.15,2013-05-19 12:12:00,
2013-05-19 08:17:00,62.7,51.6,29.97,SSE,168,0.0,3.0,67,0.00,,,0.00,Wunderground v.1.15,2013-05-19 12:17:00,
2013-05-19 08:22:00,63.3,52.2,29.97,SE,134,3.0,3.0,67,0.00,,,0.00,Wunderground v.1.15,2013-05-19 12:22:00,
2013-05-19 08:27:00,63.6,52.0,29.97,SE,135,0.0,5.0,66,0.00,,,0.00,Wunderground v.1.15,2013-05-19 12:27:00,
2013-05-19 08:33:00,64.0,52.4,29.97,East,97,0.0,1.0,66,0.00,,,0.00,Wunderground v.1.15,2013-05-19 12:33:00,
2013-05-19 08:38:00,64.6,52.6,29.97,East,100,0.0,3.0,65,0.00,,,0.00,Wunderground v.1.15,2013-05-19 12:38:00,
2013-05-19 08:43:00,65.1,53.0,29.97,East,92,0.0,1.0,65,0.00,,,0.00,Wunderground v.1.15,2013-05-19 12:43:00,
2013-05-19 08:48:00,65.6,53.1,29.97,ENE,74,0.0,3.0,64,0.00,,,0.00,Wunderground v.1.15,2013-05-19 12:48:00,
2013-05-19 08:53:00,65.9,53.4,29.97,SE,130,1.0,3.0,64,0.00,,,0.00,Wunderground v.1.15,2013-05-19 12:53:00,
2013-05-19 08:58:00,66.4,54.3,29.97,SE,134,2.0,4.0,65,0.00,,,0.00,Wunderground v.1.15,2013-05-19 12:58:00,
2013-05-19 09:03:00,66.8,54.7,29.96,ENE,77,3.0,6.0,65,0.00,,,0.00,Wunderground v.1.15,2013-05-19 13:03:00,
2013-05-19 09:08:00,67.0,53.5,29.96,East,98,0.0,6.0,62,0.00,,,0.00,Wunderground v.1.15,2013-05-19 13:08:00,
2013-05-19 09:13:00,67.1,54.5,29.97,SE,132,2.0,4.0,64,0.00,,,0.00,Wunderground v.1.15,2013-05-19 13:13:00,
2013-05-19 09:18:00,67.4,54.8,29.97,SE,127,0.0,5.0,64,0.00,,,0.00,Wunderground v.1.15,2013-05-19 13:18:00,
2013-05-19 09:23:00,68.1,55.0,29.97,ESE,109,0.0,4.0,63,0.00,,,0.00,Wunderground v.1.15,2013-05-19 13:23:00,
2013-05-19 09:28:00,68.5,54.5,29.97,SE,133,3.0,5.0,61,0.00,,,0.00,Wunderground v.1.15,2013-05-19 13:28:00,
2013-05-19 09:33:00,68.8,55.7,29.96,SSW,212,0.0,4.0,63,0.00,,,0.00,Wunderground v.1.15,2013-05-19 13:33:00,
2013-05-19 09:38:00,69.5,55.5,29.96,East,90,3.0,4.0,61,0.00,,,0.00,Wunderground v.1.15,2013-05-19 13:38:00,
2013-05-19 09:43:00,69.7,55.6,29.96,ESE,104,2.0,3.0,61,0.00,,,0.00,Wunderground v.1.15,2013-05-19 13:43:00,
2013-05-19 09:48:00,69.9,56.3,29.97,ESE,113,0.0,4.0,62,0.00,,,0.00,Wunderground v.1.15,2013-05-19 13:48:00,
2013-05-19 09:53:00,70.5,55.9,29.96,SE,134,0.0,4.0,60,0.00,,,0.00,Wunderground v.1.15,2013-05-19 13:53:00,
2013-05-19 09:58:00,70.8,55.8,29.97,WSW,254,2.0,5.0,59,0.00,,,0.00,Wunderground v.1.15,2013-05-19 13:58:00,
2013-05-19 10:03:00,71.0,56.4,29.97,NNW,335,0.0,1.0,60,0.00,,,0.00,Wunderground v.1.15,2013-05-19 14:03:00,
2013-05-19 10:08:00,71.8,56.2,29.96,South,190,2.0,5.0,58,0.00,,,0.00,Wunderground v.1.15,2013-05-19 14:08:00,
2013-05-19 10:13:00,72.1,57.0,29.96,East,95,0.0,5.0,59,0.00,,,0.00,Wunderground v.1.15,2013-05-19 14:13:00,
2013-05-19 10:18:00,72.5,56.9,29.96,ESE,103,1.0,5.0,58,0.00,,,0.00,Wunderground v.1.15,2013-05-19 14:18:00,
2013-05-19 10:23:00,72.7,57.5,29.96,SSW,208,4.0,4.0,59,0.00,,,0.00,Wunderground v.1.15,2013-05-19 14:23:00,
2013-05-19 10:28:00,72.9,58.2,29.96,SSW,204,0.0,5.0,60,0.00,,,0.00,Wunderground v.1.15,2013-05-19 14:28:00,
2013-05-19 10:33:00,73.5,58.3,29.96,WNW,290,0.0,3.0,59,0.00,,,0.00,Wunderground v.1.15,2013-05-19 14:33:00,
2013-05-19 10:38:00,74.1,58.4,29.96,SSW,202,0.0,4.0,58,0.00,,,0.00,Wunderground v.1.15,2013-05-19 14:38:00,
2013-05-19 10:43:00,74.6,58.4,29.96,SE,129,2.0,4.0,57,0.00,,,0.00,Wunderground v.1.15,2013-05-19 14:43:00,
2013-05-19 10:48:00,74.9,58.6,29.95,ESE,119,0.0,5.0,57,0.00,,,0.00,Wunderground v.1.15,2013-05-19 14:48:00,
2013-05-19 10:53:00,75.2,59.4,29.95,WSW,245,3.0,3.0,58,0.00,,,0.00,Wunderground v.1.15,2013-05-19 14:53:00,
2013-05-19 10:58:00,75.8,59.5,29.95,ESE,103,0.0,5.0,57,0.00,,,0.00,Wunderground v.1.15,2013-05-19 14:58:00,
2013-05-19 11:03:00,76.3,59.4,29.95,South,178,0.0,3.0,56,0.00,,,0.00,Wunderground v.1.15,2013-05-19 15:03:00,
2013-05-19 11:08:00,77.0,60.1,29.96,ESE,117,1.0,3.0,56,0.00,,,0.00,Wunderground v.1.15,2013-05-19 15:08:00,
2013-05-19 11:13:00,77.1,59.7,29.95,WNW,290,2.0,2.0,55,0.00,,,0.00,Wunderground v.1.15,2013-05-19 15:13:00,
2013-05-19 11:18:00,77.3,59.9,29.95,West,264,2.0,3.0,55,0.00,,,0.00,Wunderground v.1.15,2013-05-19 15:18:00,
2013-05-19 11:23:00,77.5,60.1,29.96,SSE,149,0.0,2.0,55,0.00,,,0.00,Wunderground v.1.15,2013-05-19 15:23:00,
2013-05-19 11:29:00,78.0,60.5,29.95,SSW,204,3.0,3.0,55,0.00,,,0.00,Wunderground v.1.15,2013-05-19 15:29:00,
2013-05-19 11:33:00,78.3,60.8,29.95,SSW,192,2.0,5.0,55,0.00,,,0.00,Wunderground v.1.15,2013-05-19 15:33:00,
2013-05-19 11:38:00,78.4,60.4,29.95,SW,225,3.0,5.0,54,0.00,,,0.00,Wunderground v.1.15,2013-05-19 15:38:00,
2013-05-19 11:44:00,78.8,61.8,29.95,West,276,2.0,5.0,56,0.00,,,0.00,Wunderground v.1.15,2013-05-19 15:44:00,
2013-05-19 11:49:00,78.9,60.8,29.96,West,276,0.0,6.0,54,0.00,,,0.00,Wunderground v.1.15,2013-05-19 15:49:00,
2013-05-19 11:54:00,78.7,61.2,29.96,ESE,120,0.0,4.0,55,0.00,,,0.00,Wunderground v.1.15,2013-05-19 15:54:00,
2013-05-19 11:59:00,78.9,61.4,29.95,South,173,3.0,5.0,55,0.00,,,0.00,Wunderground v.1.15,2013-05-19 15:59:00,
2013-05-19 12:04:00,79.4,61.3,29.95,SSE,163,0.0,3.0,54,0.00,,,0.00,Wunderground v.1.15,2013-05-19 16:04:00,
2013-05-19 12:09:00,79.8,61.1,29.94,East,87,0.0,3.0,53,0.00,,,0.00,Wunderground v.1.15,2013-05-19 16:09:00,
2013-05-19 12:14:00,80.0,61.3,29.94,ESE,103,4.0,6.0,53,0.00,,,0.00,Wunderground v.1.15,2013-05-19 16:14:00,
2013-05-19 12:19:00,79.5,60.9,29.94,East,85,0.0,6.0,53,0.00,,,0.00,Wunderground v.1.15,2013-05-19 16:19:00,
2013-05-19 12:24:00,79.6,59.9,29.94,ESE,105,1.0,5.0,51,0.00,,,0.00,Wunderground v.1.15,2013-05-19 16:24:00,
2013-05-19 12:29:00,79.9,61.8,29.94,WSW,244,4.0,6.0,54,0.00,,,0.00,Wunderground v.1.15,2013-05-19 16:29:00,
2013-05-19 12:34:00,80.4,62.8,29.94,West,280,4.0,5.0,55,0.00,,,0.00,Wunderground v.1.15,2013-05-19 16:34:00,
2013-05-19 12:39:00,80.1,60.9,29.94,West,277,0.0,7.0,52,0.00,,,0.00,Wunderground v.1.15,2013-05-19 16:39:00,
2013-05-19 12:44:00,80.4,62.2,29.93,West,269,0.0,3.0,54,0.00,,,0.00,Wunderground v.1.15,2013-05-19 16:44:00,
2013-05-19 12:49:00,80.8,61.0,29.94,SE,132,0.0,11.0,51,0.00,,,0.00,Wunderground v.1.15,2013-05-19 16:49:00,
2013-05-19 12:54:00,80.7,61.4,29.93,NW,313,0.0,5.0,52,0.00,,,0.00,Wunderground v.1.15,2013-05-19 16:54:00,
2013-05-19 12:59:00,80.8,61.5,29.94,ENE,72,3.0,7.0,52,0.00,,,0.00,Wunderground v.1.15,2013-05-19 16:59:00,
2013-05-19 13:04:00,80.8,61.0,29.93,WSW,247,2.0,5.0,51,0.00,,,0.00,Wunderground v.1.15,2013-05-19 17:04:00,
2013-05-19 13:09:00,80.9,61.6,29.93,South,183,1.0,8.0,52,0.00,,,0.00,Wunderground v.1.15,2013-05-19 17:09:00,
2013-05-19 13:14:00,81.0,61.7,29.93,WSW,250,2.0,6.0,52,0.00,,,0.00,Wunderground v.1.15,2013-05-19 17:14:00,
2013-05-19 13:19:00,81.4,61.0,29.93,ESE,120,0.0,9.0,50,0.00,,,0.00,Wunderground v.1.15,2013-05-19 17:19:00,
2013-05-19 13:24:00,81.4,62.1,29.93,ESE,117,4.0,5.0,52,0.00,,,0.00,Wunderground v.1.15,2013-05-19 17:24:00,
2013-05-19 13:29:00,81.6,62.8,29.92,South,184,0.0,5.0,53,0.00,,,0.00,Wunderground v.1.15,2013-05-19 17:29:00,
2013-05-19 13:34:00,82.0,62.1,29.92,WSW,240,2.0,4.0,51,0.00,,,0.00,Wunderground v.1.15,2013-05-19 17:34:00,
2013-05-19 13:39:00,82.3,62.9,29.92,SSE,163,0.0,4.0,52,0.00,,,0.00,Wunderground v.1.15,2013-05-19 17:39:00,
2013-05-19 13:44:00,82.5,62.0,29.91,SW,217,0.0,3.0,50,0.00,,,0.00,Wunderground v.1.15,2013-05-19 17:44:00,
2013-05-19 13:49:00,82.5,62.0,29.91,ESE,119,5.0,5.0,50,0.00,,,0.00,Wunderground v.1.15,2013-05-19 17:49:00,
2013-05-19 13:54:00,81.8,61.3,29.91,East,86,7.0,7.0,50,0.00,,,0.00,Wunderground v.1.15,2013-05-19 17:54:00,
2013-05-19 13:59:00,81.1,61.8,29.91,SSE,168,5.0,7.0,52,0.00,,,0.00,Wunderground v.1.15,2013-05-19 17:59:00,
2013-05-19 14:04:00,81.1,62.3,29.91,SSE,151,3.0,8.0,53,0.00,,,0.00,Wunderground v.1.15,2013-05-19 18:04:00,
2013-05-19 14:09:00,81.6,62.8,29.91,SW,225,0.0,9.0,53,0.00,,,0.00,Wunderground v.1.15,2013-05-19 18:09:00,
2013-05-19 14:14:00,81.7,62.4,29.90,WNW,286,0.0,5.0,52,0.00,,,0.00,Wunderground v.1.15,2013-05-19 18:14:00,
2013-05-19 14:19:00,81.7,62.9,29.90,ESE,104,5.0,9.0,53,0.00,,,0.00,Wunderground v.1.15,2013-05-19 18:19:00,
2013-05-19 14:24:00,81.9,62.0,29.90,South,173,2.0,6.0,51,0.00,,,0.00,Wunderground v.1.15,2013-05-19 18:24:00,
2013-05-19 14:29:00,82.3,63.5,29.89,South,188,3.0,8.0,53,0.00,,,0.00,Wunderground v.1.15,2013-05-19 18:29:00,
2013-05-19 14:34:00,82.7,62.2,29.90,SSE,163,4.0,5.0,50,0.00,,,0.00,Wunderground v.1.15,2013-05-19 18:34:00,
2013-05-19 14:39:00,82.5,62.0,29.89,ESE,112,0.0,8.0,50,0.00,,,0.00,Wunderground v.1.15,2013-05-19 18:39:00,
2013-05-19 14:44:00,82.4,63.5,29.89,East,93,0.0,6.0,53,0.00,,,0.00,Wunderground v.1.15,2013-05-19 18:44:00,
2013-05-19 14:49:00,82.4,61.9,29.90,South,174,1.0,6.0,50,0.00,,,0.00,Wunderground v.1.15,2013-05-19 18:49:00,
2013-05-19 14:54:00,82.4,62.5,29.90,SE,144,1.0,5.0,51,0.00,,,0.00,Wunderground v.1.15,2013-05-19 18:54:00,
2013-05-19 14:59:00,82.3,62.4,29.90,WSW,255,0.0,7.0,51,0.00,,,0.00,Wunderground v.1.15,2013-05-19 18:59:00,
2013-05-19 15:04:00,82.5,63.6,29.90,WNW,296,0.0,4.0,53,0.00,,,0.00,Wunderground v.1.15,2013-05-19 19:04:00,
2013-05-19 15:09:00,83.5,63.5,29.90,ENE,76,2.0,4.0,51,0.00,,,0.00,Wunderground v.1.15,2013-05-19 19:09:00,
2013-05-19 15:14:00,83.8,62.6,29.90,East,80,0.0,4.0,49,0.00,,,0.00,Wunderground v.1.15,2013-05-19 19:14:00,
2013-05-19 15:19:00,83.6,61.8,29.90,ESE,112,0.0,4.0,48,0.00,,,0.00,Wunderground v.1.15,2013-05-19 19:19:00,
2013-05-19 15:24:00,83.7,61.3,29.90,NW,314,2.0,4.0,47,0.00,,,0.00,Wunderground v.1.15,2013-05-19 19:24:00,
2013-05-19 15:29:00,83.9,61.5,29.90,ESE,103,4.0,6.0,47,0.00,,,0.00,Wunderground v.1.15,2013-05-19 19:29:00,
2013-05-19 15:34:00,84.0,62.2,29.89,WSW,257,0.0,5.0,48,0.00,,,0.00,Wunderground v.1.15,2013-05-19 19:34:00,
2013-05-19 15:39:00,84.3,62.5,29.89,West,276,0.0,6.0,48,0.00,,,0.00,Wunderground v.1.15,2013-05-19 19:39:00,
2013-05-19 15:44:00,84.7,61.6,29.89,ENE,63,0.0,5.0,46,0.00,,,0.00,Wunderground v.1.15,2013-05-19 19:44:00,
2013-05-19 15:49:00,84.7,62.2,29.89,East,100,0.0,5.0,47,0.00,,,0.00,Wunderground v.1.15,2013-05-19 19:49:00,
2013-05-19 15:54:00,84.8,61.7,29.88,SSW,200,0.0,6.0,46,0.00,,,0.00,Wunderground v.1.15,2013-05-19 19:54:00,
2013-05-19 15:59:00,84.9,63.0,29.88,West,270,2.0,6.0,48,0.00,,,0.00,Wunderground v.1.15,2013-05-19 19:59:00,
2013-05-19 16:04:00,85.1,63.2,29.88,South,169,0.0,5.0,48,0.00,,,0.00,Wunderground v.1.15,2013-05-19 20:04:00,
2013-05-19 16:09:00,85.7,63.1,29.87,WNW,285,0.0,5.0,47,0.00,,,0.00,Wunderground v.1.15,2013-05-19 20:09:00,
2013-05-19 16:14:00,85.7,62.5,29.87,ESE,115,0.0,6.0,46,0.00,,,0.00,Wunderground v.1.15,2013-05-19 20:14:00,
2013-05-19 16:19:00,85.5,63.0,29.87,SSW,199,0.0,6.0,47,0.00,,,0.00,Wunderground v.1.15,2013-05-19 20:19:00,
2013-05-19 16:24:00,85.4,63.5,29.87,SSE,156,2.0,6.0,48,0.00,,,0.00,Wunderground v.1.15,2013-05-19 20:24:00,
2013-05-19 16:29:00,85.6,63.7,29.86,NW,318,1.0,6.0,48,0.00,,,0.00,Wunderground v.1.15,2013-05-19 20:29:00,
2013-05-19 16:34:00,85.6,63.1,29.86,ESE,109,0.0,7.0,47,0.00,,,0.00,Wunderground v.1.15,2013-05-19 20:34:00,
2013-05-19 16:39:00,85.4,64.1,29.85,NE,35,0.0,7.0,49,0.00,,,0.00,Wunderground v.1.15,2013-05-19 20:39:00,
2013-05-19 16:44:00,85.2,62.1,29.85,ESE,104,0.0,6.0,46,0.00,,,0.00,Wunderground v.1.15,2013-05-19 20:44:00,
2013-05-19 16:49:00,84.8,62.3,29.86,SE,139,3.0,7.0,47,0.00,,,0.00,Wunderground v.1.15,2013-05-19 20:49:00,
2013-05-19 16:54:00,84.2,62.4,29.86,SE,128,0.0,4.0,48,0.00,,,0.00,Wunderground v.1.15,2013-05-19 20:54:00,
2013-05-19 16:59:00,84.0,62.8,29.86,SE,146,3.0,6.0,49,0.00,,,0.00,Wunderground v.1.15,2013-05-19 20:59:00,
2013-05-19 17:04:00,84.3,63.1,29.85,SSE,147,0.0,4.0,49,0.00,,,0.00,Wunderground v.1.15,2013-05-19 21:04:00,
2013-05-19 17:09:00,84.2,62.4,29.85,SE,126,1.0,5.0,48,0.00,,,0.00,Wunderground v.1.15,2013-05-19 21:09:00,
2013-05-19 17:14:00,84.0,62.8,29.86,SSE,162,0.0,5.0,49,0.00,,,0.00,Wunderground v.1.15,2013-05-19 21:14:00,
2013-05-19 17:19:00,83.9,62.1,29.85,East,96,3.0,8.0,48,0.00,,,0.00,Wunderground v.1.15,2013-05-19 21:19:00,
2013-05-19 17:24:00,83.9,62.7,29.86,SE,136,1.0,4.0,49,0.00,,,0.00,Wunderground v.1.15,2013-05-19 21:24:00,
2013-05-19 17:29:00,84.2,63.0,29.85,WSW,240,1.0,4.0,49,0.00,,,0.00,Wunderground v.1.15,2013-05-19 21:29:00,
2013-05-19 17:34:00,84.2,63.0,29.85,East,98,5.0,6.0,49,0.00,,,0.00,Wunderground v.1.15,2013-05-19 21:34:00,
2013-05-19 17:39:00,83.9,63.3,29.86,East,99,0.0,6.0,50,0.00,,,0.00,Wunderground v.1.15,2013-05-19 21:39:00,
2013-05-19 17:44:00,83.7,62.5,29.86,ENE,71,0.0,3.0,49,0.00,,,0.00,Wunderground v.1.15,2013-05-19 21:44:00,
2013-05-19 17:49:00,83.7,63.1,29.85,SE,135,0.0,3.0,50,0.00,,,0.00,Wunderground v.1.15,2013-05-19 21:49:00,
2013-05-19 17:54:00,84.2,63.5,29.85,WSW,252,0.0,4.0,50,0.00,,,0.00,Wunderground v.1.15,2013-05-19 21:54:00,
2013-05-19 17:59:00,84.3,63.6,29.85,WSW,246,0.0,4.0,50,0.00,,,0.00,Wunderground v.1.15,2013-05-19 21:59:00,
2013-05-19 18:04:00,83.9,62.7,29.85,ESE,112,1.0,7.0,49,0.00,,,0.00,Wunderground v.1.15,2013-05-19 22:04:00,
2013-05-19 18:09:00,83.5,62.3,29.85,ESE,121,0.0,7.0,49,0.00,,,0.00,Wunderground v.1.15,2013-05-19 22:09:00,
2013-05-19 18:14:00,83.6,63.0,29.85,SE,129,3.0,5.0,50,0.00,,,0.00,Wunderground v.1.15,2013-05-19 22:14:00,
2013-05-19 18:19:00,83.3,62.7,29.85,South,182,0.0,8.0,50,0.00,,,0.00,Wunderground v.1.15,2013-05-19 22:19:00,
2013-05-19 18:24:00,83.2,62.6,29.85,South,185,0.0,2.0,50,0.00,,,0.00,Wunderground v.1.15,2013-05-19 22:24:00,
2013-05-19 18:29:00,83.3,63.3,29.85,SSE,154,0.0,6.0,51,0.00,,,0.00,Wunderground v.1.15,2013-05-19 22:29:00,
2013-05-19 18:34:00,83.5,62.9,29.85,NE,55,2.0,7.0,50,0.00,,,0.00,Wunderground v.1.15,2013-05-19 22:34:00,
2013-05-19 18:39:00,83.2,62.6,29.85,South,178,0.0,9.0,50,0.00,,,0.00,Wunderground v.1.15,2013-05-19 22:39:00,
2013-05-19 18:44:00,82.8,62.3,29.85,ESE,103,0.0,5.0,50,0.00,,,0.00,Wunderground v.1.15,2013-05-19 22:44:00,
2013-05-19 18:49:00,82.7,62.7,29.85,ESE,109,0.0,5.0,51,0.00,,,0.00,Wunderground v.1.15,2013-05-19 22:49:00,
2013-05-19 18:54:00,82.9,62.9,29.85,SW,234,1.0,3.0,51,0.00,,,0.00,Wunderground v.1.15,2013-05-19 22:54:00,
2013-05-19 18:59:00,83.3,63.8,29.85,SSE,159,0.0,3.0,52,0.00,,,0.00,Wunderground v.1.15,2013-05-19 22:59:00,
2013-05-19 19:04:00,83.3,62.7,29.84,SSE,166,0.0,8.0,50,0.00,,,0.00,Wunderground v.1.15,2013-05-19 23:04:00,
2013-05-19 19:09:00,83.4,62.8,29.84,ESE,119,1.0,8.0,50,0.00,,,0.00,Wunderground v.1.15,2013-05-19 23:09:00,
2013-05-19 19:14:00,83.2,62.6,29.84,ESE,109,0.0,5.0,50,0.00,,,0.00,Wunderground v.1.15,2013-05-19 23:14:00,
2013-05-19 19:19:00,83.2,62.6,29.84,South,177,0.0,5.0,50,0.00,,,0.00,Wunderground v.1.15,2013-05-19 23:19:00,
2013-05-19 19:24:00,83.0,63.0,29.84,SE,130,0.0,5.0,51,0.00,,,0.00,Wunderground v.1.15,2013-05-19 23:24:00,
2013-05-19 19:29:00,82.8,63.4,29.84,South,184,1.0,6.0,52,0.00,,,0.00,Wunderground v.1.15,2013-05-19 23:29:00,
2013-05-19 19:34:00,82.3,64.0,29.83,SSE,159,0.0,9.0,54,0.00,,,0.00,Wunderground v.1.15,2013-05-19 23:34:00,
2013-05-19 19:39:00,81.5,64.3,29.82,SE,124,0.0,10.0,56,0.00,,,0.00,Wunderground v.1.15,2013-05-19 23:39:00,
2013-05-19 19:44:00,81.2,64.5,29.83,SE,145,3.0,9.0,57,0.00,,,0.00,Wunderground v.1.15,2013-05-19 23:44:00,
2013-05-19 19:49:00,80.9,64.2,29.84,SSE,157,0.0,9.0,57,0.00,,,0.00,Wunderground v.1.15,2013-05-19 23:49:00,
2013-05-19 19:54:00,80.6,64.5,29.84,ESE,121,0.0,3.0,58,0.00,,,0.00,Wunderground v.1.15,2013-05-19 23:54:00,
2013-05-19 19:59:00,80.3,64.7,29.84,SSE,149,0.0,3.0,59,0.00,,,0.00,Wunderground v.1.15,2013-05-19 23:59:00,
2013-05-19 20:04:00,80.1,64.5,29.84,SE,146,4.0,5.0,59,0.00,,,0.00,Wunderground v.1.15,2013-05-20 00:04:00,
2013-05-19 20:09:00,79.7,64.1,29.84,West,267,2.0,6.0,59,0.00,,,0.00,Wunderground v.1.15,2013-05-20 00:09:00,
2013-05-19 20:14:00,79.5,64.4,29.84,SSE,147,0.0,4.0,60,0.00,,,0.00,Wunderground v.1.15,2013-05-20 00:14:00,
2013-05-19 20:19:00,79.2,64.1,29.84,SW,221,1.0,4.0,60,0.00,,,0.00,Wunderground v.1.15,2013-05-20 00:19:00,
2013-05-19 20:24:00,78.9,64.3,29.84,South,183,6.0,8.0,61,0.00,,,0.00,Wunderground v.1.15,2013-05-20 00:24:00,
2013-05-19 20:29:00,78.6,64.0,29.84,South,172,0.0,8.0,61,0.00,,,0.00,Wunderground v.1.15,2013-05-20 00:29:00,
2013-05-19 20:34:00,78.3,64.2,29.84,South,174,0.0,4.0,62,0.00,,,0.00,Wunderground v.1.15,2013-05-20 00:34:00,
2013-05-19 20:39:00,78.0,64.4,29.84,SSW,209,0.0,5.0,63,0.00,,,0.00,Wunderground v.1.15,2013-05-20 00:39:00,
2013-05-19 20:44:00,77.8,64.2,29.84,SE,136,0.0,3.0,63,0.00,,,0.00,Wunderground v.1.15,2013-05-20 00:44:00,
2013-05-19 20:49:00,77.4,64.3,29.84,SE,131,0.0,4.0,64,0.00,,,0.00,Wunderground v.1.15,2013-05-20 00:49:00,
2013-05-19 20:54:00,77.1,64.4,29.84,ESE,111,0.0,5.0,65,0.00,,,0.00,Wunderground v.1.15,2013-05-20 00:54:00,
2013-05-19 20:59:00,76.8,64.6,29.84,South,171,0.0,5.0,66,0.00,,,0.00,Wunderground v.1.15,2013-05-20 00:59:00,
2013-05-19 21:04:00,76.5,64.3,29.84,SW,234,1.0,1.0,66,0.00,,,0.00,Wunderground v.1.15,2013-05-20 01:04:00,
2013-05-19 21:09:00,76.2,64.4,29.85,WSW,242,0.0,4.0,67,0.00,,,0.00,Wunderground v.1.15,2013-05-20 01:09:00,
2013-05-19 21:14:00,76.0,64.7,29.85,SE,130,0.0,0.0,68,0.00,,,0.00,Wunderground v.1.15,2013-05-20 01:14:00,
2013-05-19 21:19:00,75.6,64.3,29.85,SSW,196,2.0,3.0,68,0.00,,,0.00,Wunderground v.1.15,2013-05-20 01:19:00,
2013-05-19 21:24:00,75.3,64.4,29.85,SE,146,2.0,4.0,69,0.00,,,0.00,Wunderground v.1.15,2013-05-20 01:24:00,
2013-05-19 21:29:00,75.0,64.5,29.85,SSW,213,0.0,5.0,70,0.00,,,0.00,Wunderground v.1.15,2013-05-20 01:29:00,
2013-05-19 21:34:00,74.7,64.3,29.85,WSW,238,1.0,3.0,70,0.00,,,0.00,Wunderground v.1.15,2013-05-20 01:34:00,
2013-05-19 21:39:00,74.4,64.4,29.85,South,188,0.0,3.0,71,0.00,,,0.00,Wunderground v.1.15,2013-05-20 01:39:00,
2013-05-19 21:44:00,74.2,64.2,29.85,ENE,66,0.0,6.0,71,0.00,,,0.00,Wunderground v.1.15,2013-05-20 01:44:00,
2013-05-19 21:49:00,73.9,63.9,29.85,SSE,150,0.0,6.0,71,0.00,,,0.00,Wunderground v.1.15,2013-05-20 01:49:00,
2013-05-19 21:54:00,73.7,64.1,29.85,ESE,106,1.0,3.0,72,0.00,,,0.00,Wunderground v.1.15,2013-05-20 01:54:00,
2013-05-19 21:59:00,73.4,63.8,29.85,SSE,159,0.0,3.0,72,0.00,,,0.00,Wunderground v.1.15,2013-05-20 01:59:00,
2013-05-19 22:04:00,73.3,63.7,29.85,East,96,0.0,3.0,72,0.00,,,0.00,Wunderground v.1.15,2013-05-20 02:04:00,
2013-05-19 22:09:00,73.0,63.8,29.85,East,96,1.0,3.0,73,0.00,,,0.00,Wunderground v.1.15,2013-05-20 02:09:00,
2013-05-19 22:14:00,72.7,63.9,29.86,SSW,200,2.0,4.0,74,0.00,,,0.00,Wunderground v.1.15,2013-05-20 02:14:00,
2013-05-19 22:19:00,72.5,63.7,29.86,ESE,111,0.0,4.0,74,0.00,,,0.00,Wunderground v.1.15,2013-05-20 02:19:00,
2013-05-19 22:24:00,72.3,63.5,29.86,SW,227,0.0,4.0,74,0.00,,,0.00,Wunderground v.1.15,2013-05-20 02:24:00,
2013-05-19 22:29:00,72.0,63.6,29.86,SSE,148,0.0,5.0,75,0.00,,,0.00,Wunderground v.1.15,2013-05-20 02:29:00,
2013-05-19 22:34:00,71.8,63.4,29.86,East,84,0.0,5.0,75,0.00,,,0.00,Wunderground v.1.15,2013-05-20 02:34:00,
2013-05-19 22:39:00,71.5,63.2,29.86,WSW,239,3.0,5.0,75,0.00,,,0.00,Wunderground v.1.15,2013-05-20 02:39:00,
2013-05-19 22:44:00,71.3,63.3,29.85,South,190,0.0,6.0,76,0.00,,,0.00,Wunderground v.1.15,2013-05-20 02:44:00,
2013-05-19 22:49:00,71.1,63.1,29.86,East,84,0.0,6.0,76,0.00,,,0.00,Wunderground v.1.15,2013-05-20 02:49:00,
2013-05-19 22:55:00,70.9,63.0,29.87,NW,325,0.0,2.0,76,0.00,,,0.00,Wunderground v.1.15,2013-05-20 02:55:00,
2013-05-19 23:00:00,70.7,62.8,29.87,SSW,210,2.0,2.0,76,0.00,,,0.00,Wunderground v.1.15,2013-05-20 03:00:00,
2013-05-19 23:05:00,70.5,62.6,29.87,South,169,0.0,6.0,76,0.00,,,0.00,Wunderground v.1.15,2013-05-20 03:05:00,
2013-05-19 23:10:00,70.3,62.7,29.87,South,190,0.0,1.0,77,0.00,,,0.00,Wunderground v.1.15,2013-05-20 03:10:00,
2013-05-19 23:15:00,70.1,62.6,29.87,South,169,0.0,2.0,77,0.00,,,0.00,Wunderground v.1.15,2013-05-20 03:15:00,
2013-05-19 23:20:00,69.9,62.4,29.87,SW,217,0.0,0.0,77,0.00,,,0.00,Wunderground v.1.15,2013-05-20 03:20:00,
2013-05-19 23:25:00,69.8,62.3,29.87,East,97,0.0,2.0,77,0.00,,,0.00,Wunderground v.1.15,2013-05-20 03:25:00,
2013-05-19 23:30:00,69.5,62.3,29.87,SE,146,0.0,0.0,78,0.00,,,0.00,Wunderground v.1.15,2013-05-20 03:30:00,
2013-05-19 23:35:00,69.4,62.2,29.88,SSE,148,0.0,4.0,78,0.00,,,0.00,Wunderground v.1.15,2013-05-20 03:35:00,
2013-05-19 23:40:00,69.2,62.0,29.88,SSE,164,0.0,0.0,78,0.00,,,0.00,Wunderground v.1.15,2013-05-20 03:40:00,
2013-05-19 23:45:00,69.0,62.2,29.88,South,175,0.0,1.0,79,0.00,,,0.00,Wunderground v.1.15,2013-05-20 03:45:00,
2013-05-19 23:50:00,68.8,62.0,29.88,SSE,162,0.0,0.0,79,0.00,,,0.00,Wunderground v.1.15,2013-05-20 03:50:00,
2013-05-19 23:55:00,68.6,62.2,29.88,SSE,161,0.0,0.0,80,0.00,,,0.00,Wunderground v.1.15,2013-05-20 03:55:00,